RH
87 86 83 76 68 68 73 76 75 71 69 73 76 71 67 73 82 83 77 63 52 51 52 51 52 53 55 58 60 61 61 62 66 68 68 69 65 56 53 55 59 69 85 97 100 98 96 95 95 93 93 94 86 70 57 50 50 49 48 56 69 79 86 90 93 96 98 97 95 93 90 87 88 89
89 85 77 71 70 74 77 76 74 74 73 73 73 72 70 70 75 78 76 68 55 51 54 54 55 56 57 59 61 62 64 66 70 73 72 71 69 66 67 67 61 60 71 86 97 100 98 96 95 94 93 94 95 89 74 59 55 55 49 46 53 66 78 86 92 96 98 96 90 88 90 93 97 97
88 80 72 71 74 79 81 77 75 75 75 75 75 76 76 76 76 70 71 75 64 54 56 56 55 57 57 60 63 65 67 69 71 74 74 74 73 73 72 59 45 49 61 73 88 99 100 98 96 96 95 92 93 95 91 80 67 62 58 50 46 55 69 80 86 90 94 93 89 86 86 89 94 98
85 75 72 76 78 83 85 80 77 78 78 79 79 81 81 82 81 74 73 80 72 60 60 60 60 62 63 65 68 68 68 70 72 75 75 76 74 74 72 56 38 45 63 73 84 95 99 100 98 97 95 92 91 92 95 94 84 73 67 57 50 51 60 73 80 82 86 89 87 83 82 86 90 93
80 74 77 80 79 86 89 83 80 81 81 82 82 83 84 82 81 79 77 81 78 70 67 67 66 66 67 69 69 69 70 70 71 75 74 74 73 72 75 64 45 49 70 81 85 92 98 100 100 99 97 93 92 92 93 95 93 87 77 64 57 55 58 70 78 79 81 83 84 80 76 81 87 90
77 79 82 81 82 89 92 87 85 85 83 84 86 86 87 85 83 83 83 83 84 77 70 69 68 68 70 71 71 71 71 70 70 72 72 73 74 73 77 74 61 64 82 88 88 91 95 97 99 100 98 95 94 93 92 90 90 90 84 70 61 57 58 65 75 79 78 79 81 77 72 74 79 84
80 84 84 83 85 90 93 90 87 87 86 87 90 90 89 89 88 88 88 88 89 83 74 71 72 72 72 72 71 69 68 68 70 72 73 76 76 77 81 84 82 86 91 90 89 91 91 92 93 93 92 91 92 92 91 91 88 89 88 76 64 59 59 63 71 75 75 76 77 72 68 68 70 77
86 87 85 85 89 92 93 92 89 90 93 94 95 95 93 92 91 90 91 92 91 85 76 70 68 68 68 68 68 68 67 69 71 74 76 76 78 80 82 85 91 96 93 88 88 90 89 88 86 84 84 84 84 85 87 91 91 91 90 80 69 63 60 61 66 71 73 72 71 69 65 61 66 79
88 88 85 86 92 95 95 95 95 95 98 98 99 98 94 91 91 91 89 86 83 79 73 68 66 66 67 68 67 67 68 70 72 74 77 79 83 85 82 84 94 98 93 89 90 89 89 88 84 81 78 77 79 82 84 88 92 94 92 84 73 63 58 58 60 64 69 67 64 65 59 57 71 87
87 87 87 90 95 96 97 98 99 99 99 100 99 98 96 95 93 88 82 77 76 76 73 70 68 67 67 67 66 67 69 73 75 74 77 84 92 96 94 94 99 100 97 95 93 91 89 87 84 81 76 73 76 84 87 87 89 93 93 86 75 63 55 56 57 60 63 61 59 58 53 60 79 90
87 86 90 94 94 94 98 100 100 100 100 100 100 98 95 93 87 80 76 75 75 73 70 68 67 67 68 68 67 69 74 78 79 77 80 87 94 99 99 99 99 98 99 98 94 91 89 87 84 79 74 72 73 82 91 91 90 90 88 81 72 63 57 57 62 66 64 60 59 56 55 69 85 91
84 87 91 94 93 95 100 101 101 101 100 100 99 93 88 86 82 79 77 75 74 72 70 70 70 69 70 70 71 74 79 81 82 84 89 92 94 96 97 98 100 99 100 99 97 94 90 89 85 77 73 72 71 78 89 93 92 88 82 78 73 66 60 63 73 80 76 71 68 64 67 81 88 90
80 86 92 94 96 98 101 101 97 96 99 101 98 92 89 88 85 82 80 77 75 75 75 74 73 74 74 73 75 78 80 80 82 88 94 97 96 97 97 98 99 99 99 99 97 93 89 87 83 76 73 73 71 77 88 95 94 86 78 78 78 72 65 68 79 87 85 82 78 75 82 91 92 91
79 85 91 95 96 96 99 98 94 95 100 101 97 95 95 93 91 89 86 82 80 80 80 78 78 80 79 77 79 82 81 81 85 89 93 96 96 97 100 99 98 98 99 100 98 92 88 86 81 74 72 72 72 78 87 94 94 87 82 83 84 78 70 72 83 89 88 87 82 82 92 99 97 92
85 85 91 97 93 92 97 98 96 98 101 101 99 98 97 95 97 97 94 91 89 87 85 83 82 84 83 81 83 85 84 84 88 91 93 95 96 98 99 98 97 97 98 100 100 95 90 87 82 76 72 72 73 75 80 89 92 88 86 87 87 81 73 75 89 97 94 90 84 84 94 101 98 92
91 87 92 97 94 94 98 99 98 98 100 100 98 96 97 98 99 100 99 99 99 96 92 88 85 85 85 85 86 88 88 90 92 93 94 95 96 98 99 96 94 93 95 99 100 97 93 89 86 83 75 71 73 73 76 84 87 86 87 87 86 82 74 75 87 96 97 95 89 85 88 96 98 95
92 90 94 98 95 96 100 100 98 100 101 97 90 91 97 98 98 100 101 100 100 100 99 95 90 89 91 91 91 92 95 97 96 93 93 94 96 99 99 97 93 90 92 99 100 98 96 92 92 91 78 68 70 73 74 78 79 81 85 85 83 81 75 72 78 86 91 96 97 91 86 91 97 96
90 90 97 101 98 98 100 100 99 101 102 94 87 92 98 96 97 101 101 100 100 100 100 99 96 96 98 98 98 98 99 100 99 96 95 95 97 99 99 97 94 90 91 97 98 97 98 97 97 95 80 70 73 73 70 73 74 75 78 80 83 84 79 73 75 79 82 89 96 97 94 95 96 95
84 88 98 100 100 100 99 100 100 100 101 97 93 96 96 94 97 100 100 101 101 99 100 101 100 100 100 100 100 100 100 100 99 99 99 99 98 100 99 98 97 94 94 97 97 95 97 100 100 96 85 80 82 78 71 71 72 74 76 79 87 90 82 75 76 78 79 82 89 95 99 100 97 95
76 86 99 100 99 101 99 100 100 99 100 100 98 97 95 93 96 99 99 100 101 100 100 100 99 100 100 100 100 100 100 100 100 99 98 98 99 100 98 96 98 99 98 100 98 95 97 100 100 98 93 91 92 89 83 80 77 78 81 85 92 93 83 76 78 80 79 79 83 88 94 100 99 95
68 80 97 101 99 100 100 100 100 100 100 100 100 99 95 94 96 98 95 94 98 101 101 101 101 101 100 100 100 100 100 99 100 99 95 96 98 99 96 94 97 99 99 100 100 96 96 99 100 99 99 98 98 97 95 92 89 89 91 93 96 95 87 80 80 82 81 79 80 83 87 94 99 96
62 73 90 100 100 100 100 100 100 100 100 100 100 100 97 95 97 99 96 93 95 96 96 97 97 97 100 101 99 100 100 100 101 99 97 98 98 95 93 93 96 98 99 100 100 97 96 99 100 99 100 100 99 98 97 96 96 97 99 99 99 98 94 87 82 82 84 81 80 85 86 88 95 96
60 67 80 92 99 100 99 100 100 100 100 100 100 100 99 98 98 101 101 99 99 96 91 91 92 92 95 97 97 97 99 100 101 100 99 101 99 95 93 92 93 95 98 99 100 97 96 99 100 97 95 95 97 100 99 96 97 98 99 100 100 99 99 94 85 83 86 83 81 89 94 92 94 97
72 74 82 90 98 101 100 100 100 99 100 100 100 100 100 99 100 101 100 99 100 98 93 92 93 91 91 92 93 94 96 98 100 100 100 100 100 99 98 94 90 91 96 99 100 99 97 98 99 96 91 86 89 97 100 99 98 99 99 100 100 100 100 97 90 87 88 85 80 88 99 99 97 99
91 91 95 97 99 100 100 99 100 100 100 100 100 100 100 99 101 102 98 94 94 94 92 92 93 91 89 89 89 90 94 97 99 100 100 100 100 99 100 97 91 91 96 100 100 100 99 98 98 99 96 89 89 96 100 100 100 99 99 100 100 100 100 99 95 91 89 86 82 84 95 100 100 100
97 97 101 100 100 100 100 100 101 100 100 100 99 100 100 100 103 102 98 94 92 91 92 93 93 92 90 89 89 90 93 96 98 100 99 99 100 99 100 100 97 95 98 100 100 100 100 98 97 97 97 93 92 95 97 98 100 100 99 100 100 100 100 100 98 94 90 89 86 82 85 93 97 99
99 98 100 100 100 100 99 101 102 100 101 101 99 100 102 101 101 98 93 93 94 93 94 94 94 93 93 93 91 91 93 96 98 100 99 99 100 99 99 100 99 99 100 100 100 100 99 99 99 98 96 93 92 94 94 94 98 100 99 100 100 100 100 100 99 95 91 89 88 85 83 85 89 93
96 99 102 100 101 102 101 100 97 95 99 101 100 101 102 99 97 95 93 95 96 95 96 95 95 94 94 94 92 91 94 97 97 96 97 97 98 99 99 99 98 98 99 99 100 100 99 99 100 99 98 93 89 89 91 94 98 100 100 100 100 99 100 100 97 94 93 93 90 87 88 89 89 89
88 95 98 92 91 97 98 90 83 85 96 102 103 103 99 94 94 97 98 98 97 98 98 98 97 95 91 89 89 89 91 92 93 93 92 90 90 91 92 92 92 94 96 98 99 99 100 100 100 99 100 97 91 89 90 94 99 100 99 100 100 99 100 100 96 93 95 97 93 87 90 96 97 94
75 77 75 71 72 81 88 85 81 85 91 94 95 96 93 92 96 101 102 101 100 101 101 101 100 96 90 86 86 85 85 86 89 93 93 89 88 88 89 88 87 88 91 94 97 98 99 100 100 99 100 99 97 95 94 94 98 100 100 99 99 99 100 100 96 94 94 98 96 89 88 96 101 100
68 64 63 67 70 76 80 80 80 83 84 86 89 92 92 94 99 102 102 102 102 102 102 102 100 96 91 88 86 84 83 83 86 90 91 90 90 91 91 89 87 87 86 87 92 96 98 99 100 100 100 100 99 99 97 95 96 99 100 100 98 98 100 100 98 96 93 93 96 94 90 91 96 99
66 61 62 68 71 72 74 73 74 75 78 84 91 96 96 96 97 100 100 99 100 102 101 101 99 94 92 90 89 88 86 83 83 86 86 86 89 91 90 89 91 91 87 84 86 90 94 99 100 99 100 100 100 100 99 97 97 99 100 100 99 98 99 100 100 98 93 92 97 99 95 90 89 92
63 59 63 71 76 81 85 85 86 86 86 87 91 95 99 98 96 99 100 99 101 102 101 100 99 96 95 93 92 93 90 83 84 87 85 81 84 89 90 89 91 93 93 92 91 88 88 93 98 100 100 100 99 99 98 97 98 100 99 100 100 100 99 99 100 99 97 97 99 100 99 96 90 87
61 61 71 81 89 96 100 101 100 99 98 97 95 97 100 101 99 100 101 102 103 101 101 102 100 99 99 97 94 97 96 87 84 87 85 82 84 88 89 88 89 90 92 95 96 94 91 89 90 93 95 96 97 98 97 98 99 100 100 100 100 100 100 100 100 100 100 99 99 99 100 100 97 92
67 73 83 91 95 100 104 106 105 102 100 101 101 100 101 102 102 101 101 102 104 102 101 102 101 100 101 100 97 99 100 92 87 86 85 85 88 90 87 86 88 89 89 92 96 99 98 94 89 85 85 87 89 91 94 98 100 99 98 100 100 99 100 100 100 100 100 99 99 99 99 100 100 99
77 86 92 95 98 101 104 106 105 102 101 102 102 102 103 103 104 104 103 104 105 104 102 101 101 100 101 101 99 99 99 95 92 91 90 89 92 92 89 88 90 89 87 90 95 97 98 98 96 89 83 83 86 87 88 93 98 99 97 98 99 100 100 100 100 100 100 100 99 98 97 97 99 100
83 91 92 95 98 101 105 106 104 102 103 103 103 104 105 106 106 105 105 105 105 105 103 101 101 100 100 101 101 100 98 96 95 96 95 94 94 93 89 89 90 88 85 86 89 93 95 97 97 94 88 86 89 89 85 84 90 97 99 99 98 98 99 100 100 99 100 100 100 99 97 97 99 100
85 89 88 91 93 95 102 105 102 101 103 104 104 106 106 106 106 105 105 105 105 105 106 104 102 102 101 101 101 101 100 98 97 98 98 97 96 95 92 91 91 89 85 82 81 84 89 93 97 98 94 91 92 92 88 85 85 91 98 100 99 98 99 100 100 100 100 100 100 100 100 99 99 100
84 85 83 85 86 89 98 103 103 104 105 105 106 107 106 105 105 104 105 105 104 105 106 106 104 104 103 102 102 101 101 100 98 99 100 100 100 100 97 95 92 90 86 82 78 76 79 86 94 100 101 99 96 95 96 95 90 89 94 99 100 99 99 100 100 99 100 100 99 100 100 100 100 100
82 81 79 79 79 83 91 98 103 106 106 106 107 107 106 105 105 105 105 105 103 104 105 106 105 104 104 104 102 100 101 102 100 100 101 101 101 101 100 98 95 92 88 85 83 80 77 78 87 96 101 102 100 99 100 99 94 90 92 96 99 100 99 100 100 100 99 100 100 99 100 99 99 100
77 77 75 74 74 77 83 91 98 103 104 105 106 105 105 106 105 105 105 104 103 103 104 105 105 104 104 105 104 101 102 103 101 101 102 101 101 101 100 99 98 95 89 86 88 86 78 71 75 86 94 98 99 98 97 95 91 90 90 92 97 100 100 99 100 100 99 99 100 99 99 100 99 99
72 71 70 69 69 72 77 85 94 99 100 101 103 104 105 104 104 103 102 101 101 103 103 104 105 105 105 105 105 104 104 104 103 102 102 102 101 100 99 101 101 99 94 91 89 84 72 59 57 67 82 94 97 94 92 91 91 91 92 92 94 98 100 100 100 100 99 100 99 97 97 97 97 97
70 65 64 65 65 67 72 81 90 95 96 97 99 103 104 103 102 102 101 100 100 102 103 104 104 106 106 106 105 105 106 106 105 103 102 102 103 102 103 103 102 98 96 93 86 76 65 57 54 59 71 85 93 93 92 93 92 92 93 93 93 96 99 100 100 100 100 100 99 98 97 95 93 92
72 65 61 61 63 65 69 77 87 93 94 93 95 99 102 103 102 101 101 102 102 102 105 106 105 106 107 106 104 104 105 106 107 106 105 105 106 105 106 106 101 96 95 93 85 74 64 59 58 61 67 78 88 93 94 95 94 94 95 95 95 97 99 99 100 100 100 99 99 100 100 98 95 94
75 70 64 61 62 64 68 75 84 90 91 91 93 96 98 100 101 100 99 101 102 102 104 106 105 106 108 107 105 105 105 105 105 105 105 105 105 105 106 106 102 97 96 95 92 85 75 65 60 60 65 73 79 86 92 95 95 95 96 95 95 96 95 96 99 101 99 99 100 100 100 99 99 98
Wind_Speed
19 18 18 21 23 23 20 19 19 21 22 20 19 19 17 14 11 9 11 11 12 19 21 21 23 23 21 22 23 25 28 30 31 32 32 32 32 33 33 31 29 27 26 24 23 25 27 27 27 27 27 26 28 31 34 35 34 36 37 35 33 31 29 28 27 26 27 29 31 32 34 36 39 41
18 19 21 23 23 20 17 19 21 20 19 19 19 19 19 18 13 9 11 12 13 18 22 23 24 26 25 25 27 29 29 30 31 30 31 31 31 32 32 32 31 29 28 26 25 24 26 28 28 28 28 28 27 28 31 33 33 34 36 37 37 36 35 32 29 26 26 29 31 32 33 34 33 37
18 21 24 23 20 18 17 20 21 19 18 19 19 19 19 19 18 15 11 11 16 22 24 25 26 28 29 29 29 30 29 29 30 30 30 30 30 31 33 34 33 30 28 27 26 25 25 27 28 28 28 28 28 27 28 30 32 33 34 35 37 38 38 37 34 31 29 30 31 32 32 34 33 33
19 22 23 21 19 17 18 21 20 18 19 19 19 20 20 19 19 19 15 11 17 25 27 28 29 27 28 29 28 29 29 28 28 28 27 28 29 29 31 34 33 30 28 26 25 25 25 27 28 28 28 27 28 28 27 27 28 30 32 33 35 37 38 39 38 36 34 32 33 33 31 31 33 34
20 22 21 20 19 18 18 21 20 19 19 19 19 20 20 20 20 20 19 12 14 24 28 27 27 26 26 28 27 27 28 28 26 26 27 27 28 28 29 32 33 30 27 25 23 24 25 26 27 28 28 27 27 27 27 27 27 28 31 33 34 36 37 38 39 38 37 36 35 35 33 32 33 34
21 21 20 20 20 18 18 20 19 19 19 19 20 21 20 22 22 21 22 17 11 18 26 26 26 26 25 26 27 26 27 29 28 28 29 28 28 28 28 30 32 29 26 24 23 23 24 26 27 27 28 28 27 27 28 29 28 28 29 32 33 35 37 38 39 39 39 38 37 36 35 34 34 35
21 20 20 20 20 19 19 20 19 19 20 20 21 22 22 23 24 23 24 21 14 14 22 25 25 25 25 26 28 27 27 29 29 30 30 29 28 28 27 28 29 27 26 25 24 24 24 25 26 27 28 29 29 28 28 29 30 29 29 31 32 33 36 37 38 39 40 40 39 38 37 37 37 37
20 20 20 21 20 19 19 19 20 19 21 22 21 22 23 22 23 24 23 22 20 18 19 23 26 27 27 27 28 27 27 28 29 29 30 29 28 29 29 28 27 26 27 25 24 24 23 23 25 27 28 29 30 30 30 30 30 30 30 30 31 32 34 35 37 39 40 41 40 40 40 39 38 39
19 20 21 21 19 19 19 19 21 23 24 24 22 22 23 24 24 24 22 21 24 23 21 23 27 27 26 27 28 26 25 27 28 27 27 28 27 28 30 29 26 25 26 25 24 24 24 23 24 26 28 29 30 31 32 32 31 30 30 30 31 31 32 34 36 38 40 41 40 40 40 38 38 40
19 20 20 20 18 19 21 22 24 27 27 25 23 23 25 25 23 23 23 24 25 25 24 24 25 24 24 25 26 24 22 24 26 25 25 25 25 25 26 25 24 24 23 24 24 24 24 23 23 25 27 29 31 31 32 32 32 31 30 30 30 30 31 32 34 36 38 39 40 39 38 37 36 38
19 20 19 19 18 20 23 24 25 27 26 24 24 25 25 23 22 24 25 25 23 22 23 22 22 23 22 22 24 24 22 23 26 25 21 19 20 22 23 22 22 22 21 22 23 24 23 22 23 25 27 29 31 32 32 32 32 32 31 30 29 29 29 29 30 32 34 35 36 35 35 36 33 34
21 21 19 17 19 22 23 25 26 27 27 27 26 24 23 23 25 25 23 21 20 20 20 19 20 21 20 20 22 22 20 19 19 20 17 15 17 18 19 21 21 19 21 23 23 24 23 22 22 23 26 29 31 32 32 32 32 32 31 29 28 27 27 27 28 29 30 31 32 31 33 33 30 32
25 21 17 17 19 22 24 27 29 30 31 30 26 23 24 25 24 22 19 18 18 18 16 14 16 16 15 17 18 17 16 16 17 20 18 16 19 19 17 20 22 21 22 22 22 23 23 22 22 23 25 29 31 32 32 32 32 31 30 28 27 26 26 25 26 28 28 29 29 29 30 29 26 28
28 22 17 17 19 23 27 29 30 33 34 30 24 24 26 25 21 18 18 17 17 16 13 11 13 11 9 14 17 16 19 21 21 22 19 16 17 17 14 15 19 22 22 19 19 22 23 22 22 23 26 29 31 32 33 32 32 31 29 28 26 25 25 24 24 25 26 27 28 28 27 24 22 24
26 24 19 17 19 26 29 29 33 38 34 25 22 25 25 21 19 18 18 17 17 16 13 12 13 10 10 16 19 17 20 22 21 20 19 18 14 10 9 8 10 17 22 18 15 18 21 22 23 24 26 29 30 33 35 33 32 31 29 27 25 24 24 24 23 23 24 25 26 29 27 22 20 21
22 23 20 18 20 28 30 31 38 40 28 21 25 25 22 20 19 20 19 17 17 16 15 14 15 13 14 19 20 18 20 21 22 22 20 19 15 7 7 6 5 10 18 18 13 13 17 21 22 22 25 28 30 33 35 33 32 30 28 26 25 23 23 24 25 24 23 24 25 28 29 23 19 19
22 22 19 18 22 30 32 35 41 35 23 26 32 26 19 20 21 20 20 18 17 18 17 16 18 19 19 20 21 21 22 22 23 22 19 17 16 9 6 7 6 8 14 18 13 10 14 19 19 19 24 27 28 30 32 32 32 30 28 26 25 24 23 24 25 24 24 24 25 26 28 26 21 19
23 21 17 17 23 31 35 37 38 30 24 31 34 24 19 22 22 20 21 21 20 20 18 18 21 24 24 23 24 25 23 22 21 20 19 18 16 11 6 8 10 10 13 18 13 6 11 18 17 16 22 25 25 27 29 30 30 29 28 27 25 24 23 23 23 23 23 24 25 25 26 26 24 21
25 21 15 16 22 30 35 35 34 31 28 28 27 23 21 23 22 19 20 22 23 22 20 20 23 26 25 26 27 27 24 22 21 22 23 22 19 16 10 7 9 9 12 18 13 4 8 17 16 15 19 21 22 24 25 26 28 28 27 27 25 24 23 23 22 22 22 23 25 25 25 26 25 24
27 21 15 17 22 29 34 32 31 32 29 24 23 23 23 25 22 20 22 24 23 22 21 21 21 23 23 24 26 26 24 23 23 20 14 12 11 11 7 5 5 7 11 17 14 4 6 15 15 11 15 18 19 21 22 23 25 26 25 25 25 24 23 23 22 21 20 21 24 25 25 25 27 25
28 22 17 18 22 28 31 31 31 32 28 24 23 23 23 25 23 23 29 31 25 22 21 20 19 19 19 23 26 26 24 23 23 17 7 7 10 5 6 3 3 6 9 13 13 5 4 13 14 9 10 15 16 19 21 21 21 22 23 23 24 24 23 22 22 22 20 19 21 24 24 24 25 26
27 25 21 19 21 26 29 29 30 31 28 24 24 23 24 24 22 24 33 36 32 29 26 24 24 24 24 28 33 34 29 27 26 19 11 12 12 3 3 2 3 6 5 6 9 6 5 12 14 9 7 9 10 14 18 18 19 20 21 22 23 24 24 23 22 22 20 18 19 21 23 23 23 23
27 26 24 22 22 25 28 29 28 29 27 24 23 23 23 23 22 25 30 33 32 32 33 33 33 35 36 38 40 40 37 34 31 25 18 16 12 6 2 1 3 5 3 2 3 5 7 12 14 11 6 3 5 10 14 15 17 19 20 21 22 23 24 23 22 21 20 19 19 19 20 22 22 22
26 26 26 26 25 26 28 27 27 28 27 24 24 24 23 23 24 26 28 28 27 27 30 32 33 38 43 45 45 45 43 40 37 32 27 22 17 11 8 5 4 4 4 7 3 5 7 10 14 12 6 2 3 7 11 13 15 17 18 21 22 23 23 23 22 21 20 19 20 21 20 20 22 24
23 24 25 26 25 25 26 26 26 27 26 24 24 26 25 24 24 25 28 30 28 27 28 28 30 37 46 49 49 49 47 44 40 35 32 28 22 17 14 11 6 4 8 12 4 5 7 10 13 10 5 3 3 5 7 11 14 16 18 20 22 23 24 23 22 21 20 19 19 21 22 21 22 23
20 22 22 23 23 24 24 25 25 25 26 25 25 27 26 25 25 26 28 30 29 28 28 26 27 36 44 48 50 50 49 46 41 36 33 30 24 19 18 17 12 7 13 16 7 5 6 9 13 10 4 3 4 5 5 6 11 15 18 20 22 23 24 25 24 23 22 20 18 19 21 22 22 22
18 20 20 19 21 21 22 23 24 25 25 25 26 28 28 28 29 32 34 34 29 25 25 24 25 32 37 41 45 47 46 45 42 37 33 30 24 20 20 23 23 20 21 22 16 8 5 6 11 11 6 4 5 5 4 3 7 13 17 20 22 24 25 26 26 24 22 21 18 17 18 20 21 22
15 16 17 17 18 19 20 22 24 25 25 25 26 29 31 33 37 39 40 38 32 27 28 26 25 30 36 37 39 41 40 41 40 36 31 29 25 20 20 24 30 32 31 29 23 17 14 8 3 8 10 8 6 5 4 3 6 12 15 16 19 23 26 26 25 24 22 21 19 17 16 18 19 21
12 11 13 14 16 18 20 23 28 29 29 28 27 30 34 38 41 40 39 39 34 27 25 24 23 30 37 37 35 35 35 38 41 39 36 34 31 27 24 27 32 35 35 33 29 24 21 16 9 2 9 11 7 5 6 5 6 12 15 13 14 19 25 27 25 24 23 21 21 20 17 17 17 18
9 11 15 17 20 22 23 26 29 30 30 31 31 34 37 40 40 37 34 35 32 25 22 22 22 27 35 36 34 34 35 41 45 43 39 38 37 33 31 33 36 37 36 35 32 29 26 20 15 10 4 8 7 7 9 8 7 11 15 15 12 13 19 25 24 23 24 22 21 22 20 17 16 16
11 15 18 20 22 24 24 27 29 29 31 34 35 37 37 38 37 34 30 30 29 27 24 22 22 27 34 37 37 36 37 41 45 42 38 37 36 35 33 33 34 37 38 37 33 30 28 23 18 14 9 4 5 6 9 10 9 10 12 15 13 10 14 23 24 22 23 23 20 21 22 20 18 16
13 17 20 22 25 27 28 30 32 33 34 34 34 35 35 35 35 34 33 34 34 32 30 28 29 34 38 38 38 36 36 41 43 41 39 37 34 34 31 23 21 29 36 39 38 33 28 24 20 18 16 12 8 7 9 9 7 9 11 13 12 9 13 21 23 21 23 22 19 20 22 23 22 20
14 19 22 25 27 29 30 32 33 34 34 34 34 33 34 35 36 36 37 38 36 34 34 33 34 37 36 35 35 33 33 39 42 38 38 38 34 30 26 18 15 20 23 28 36 39 34 27 19 17 21 23 19 13 10 7 5 7 9 10 10 10 12 17 20 22 23 22 19 17 19 22 24 23
16 21 23 25 26 26 27 28 29 30 31 32 33 33 32 33 35 35 34 35 34 33 33 32 33 35 34 33 33 29 27 35 41 37 38 39 33 25 21 17 17 20 18 18 26 35 38 34 25 18 19 24 26 25 21 14 8 7 8 8 8 9 11 14 17 19 20 20 19 17 15 18 21 23
18 21 21 21 22 22 23 24 24 25 27 28 29 30 31 31 32 32 31 32 32 32 32 31 32 34 33 33 33 28 24 30 38 38 39 38 30 22 20 17 16 20 20 18 21 27 31 34 30 22 16 14 15 20 25 24 18 13 9 7 6 5 8 11 14 17 16 15 17 16 12 13 17 20
18 18 18 18 19 20 21 21 21 22 24 25 25 27 28 29 30 29 27 27 29 29 30 30 31 32 32 33 33 29 25 27 32 33 35 34 26 19 18 18 17 19 19 18 21 24 24 25 24 17 8 7 6 7 12 20 23 20 16 13 10 7 4 8 12 14 14 13 14 14 10 9 15 20
16 15 16 16 17 17 18 19 20 21 22 23 23 24 25 25 27 27 25 26 28 29 28 29 30 31 31 32 33 31 28 26 25 24 27 28 25 21 19 18 17 19 20 19 21 23 22 22 21 15 6 5 6 3 6 13 19 21 22 20 16 11 5 4 8 9 9 10 12 12 10 10 15 20
13 13 14 15 15 16 17 18 19 20 22 23 23 24 24 24 25 26 27 28 29 29 29 30 30 31 32 32 32 31 30 29 27 25 25 24 22 20 20 18 17 19 21 22 22 22 21 21 20 16 9 5 3 3 6 10 14 19 23 20 15 10 6 2 4 6 7 8 9 9 10 11 14 18
11 11 12 13 14 15 15 16 18 19 20 22 22 23 24 25 25 26 28 29 28 28 29 30 30 30 31 32 30 28 29 31 30 28 27 25 21 18 18 17 18 20 20 21 23 25 24 23 21 18 12 7 6 9 8 8 14 19 23 20 11 7 5 3 0 3 6 7 8 8 8 10 12 15
9 9 10 11 12 13 14 15 16 17 18 20 21 21 22 23 24 25 26 27 28 28 28 29 29 29 30 31 30 29 28 29 29 28 29 28 24 20 18 16 17 19 17 15 18 23 26 27 27 24 20 16 15 15 14 13 16 20 23 22 15 9 5 3 2 1 3 7 9 9 9 9 10 12
7 7 8 9 10 11 12 13 15 16 17 18 19 20 21 21 22 22 22 24 26 27 27 28 28 29 28 29 29 29 28 29 29 29 29 29 27 26 24 20 17 17 16 13 14 20 26 30 30 24 20 19 16 10 8 7 7 13 20 24 21 13 7 4 2 2 3 6 9 8 7 7 8 9
5 6 6 7 8 10 11 12 13 15 16 17 18 19 20 21 21 21 22 24 25 26 27 27 27 27 28 27 28 27 27 28 29 28 28 29 28 29 29 25 19 17 15 14 16 23 29 33 33 29 24 22 17 9 4 5 6 9 17 23 24 18 10 6 3 0 3 7 8 6 4 5 5 6
3 4 5 6 7 8 9 10 12 14 15 17 18 19 20 21 21 22 22 24 25 25 26 26 26 27 27 26 26 26 26 27 28 28 28 28 27 26 27 27 24 21 19 19 24 30 33 34 35 33 28 23 18 12 6 7 8 10 14 20 24 22 16 9 6 3 4 7 6 4 3 3 3 3
1 3 3 4 5 7 8 9 11 13 14 16 17 18 19 20 20 20 20 21 23 23 24 25 25 26 26 26 26 26 25 24 25 25 26 26 26 25 25 26 27 26 25 27 31 35 36 35 35 33 27 20 17 13 10 10 11 12 14 18 21 22 20 14 7 4 5 5 4 4 3 2 3 4
1 1 2 3 4 6 7 9 10 11 13 15 16 17 18 18 19 19 19 19 21 22 22 23 24 24 24 25 25 25 24 24 24 24 24 25 26 26 26 27 27 27 28 29 29 32 35 37 38 36 29 21 19 18 14 12 11 12 14 16 18 19 21 20 11 4 4 4 3 3 4 3 1 0
Wind_Direction
309 307 307 307 304 301 300 300 303 304 300 296 296 298 293 291 294 294 296 296 296 299 299 296 296 296 293 293 294 294 294 295 295 295 293 291 290 288 286 286 285 282 278 274 265 254 248 246 242 239 236 235 235 235 236 236 237 238 238 236 235 232 228 228 228 228 229 232 234 234 233 234 238 238
309 309 309 308 304 300 299 304 304 300 297 294 292 293 293 291 290 293 297 292 291 296 296 292 293 296 295 294 294 293 292 292 291 290 288 287 285 285 284 283 283 281 276 272 268 259 250 246 243 240 236 234 233 232 233 234 235 238 238 237 237 235 232 231 230 229 231 233 235 237 236 235 237 238
310 311 312 309 306 301 302 308 306 298 295 294 291 290 289 289 289 288 289 287 287 290 292 292 292 292 293 293 292 290 289 288 287 285 284 284 283 283 282 281 281 280 274 268 267 261 252 246 244 241 237 235 233 231 230 231 232 235 239 237 237 237 235 235 235 236 237 238 238 238 239 238 239 239
312 313 313 310 307 304 305 310 307 298 296 294 291 290 287 286 286 284 281 281 286 287 287 291 292 291 291 291 289 288 288 286 285 282 280 282 284 281 278 279 280 278 272 267 263 259 252 246 244 243 239 235 234 232 230 229 229 232 236 236 235 235 236 236 238 240 241 242 242 240 241 242 242 243
315 315 312 310 309 306 307 311 308 301 299 297 292 289 287 285 284 281 279 276 282 287 287 289 290 290 291 289 288 287 288 287 285 281 280 280 281 277 273 277 279 274 268 266 261 257 251 244 242 242 240 236 234 233 232 229 228 229 232 233 233 233 234 235 237 240 242 243 244 242 243 245 245 246
317 316 313 313 313 310 309 310 308 304 302 298 293 290 288 287 284 280 278 277 279 287 290 291 289 290 289 287 286 286 285 286 284 282 281 280 278 273 270 273 275 271 266 265 262 258 251 244 240 240 239 237 234 233 232 230 228 228 230 232 233 233 234 235 236 238 242 244 245 245 244 247 250 250
318 318 316 315 315 313 312 311 310 307 303 298 293 292 291 287 283 280 275 271 268 278 289 292 292 292 290 286 285 285 283 282 281 280 279 277 274 270 266 267 268 265 263 264 262 259 253 244 240 239 238 236 234 232 229 229 228 228 230 232 233 235 235 236 237 238 241 244 246 248 248 249 252 255
319 319 318 316 316 315 313 312 311 307 302 299 296 295 295 291 286 283 276 270 271 278 287 292 291 290 289 286 284 285 283 281 279 277 277 274 270 267 266 264 261 259 259 262 261 257 252 245 238 237 236 235 234 232 228 226 227 228 230 232 232 234 235 237 238 238 241 244 247 249 250 251 256 259
321 320 319 316 316 315 313 312 311 308 304 300 296 294 296 294 290 287 286 286 286 285 285 288 289 287 286 286 284 283 283 283 281 279 275 269 265 266 267 263 256 254 257 259 258 252 249 245 238 235 234 234 233 232 228 225 225 226 229 230 232 234 236 238 238 239 241 244 247 250 250 252 257 261
325 322 320 316 315 315 313 311 311 309 306 300 295 295 295 294 293 295 297 296 291 284 281 284 288 288 286 286 285 283 282 282 284 283 279 271 261 258 261 257 249 249 253 254 250 246 245 243 237 232 231 232 231 230 228 225 223 225 226 228 231 233 235 237 238 240 241 243 246 248 249 250 256 264
329 326 323 318 317 318 315 313 313 312 309 305 303 302 300 300 303 303 299 294 288 285 285 285 286 288 287 285 285 287 288 285 281 274 269 269 263 252 248 247 245 245 245 247 244 242 243 243 237 230 227 229 229 227 226 224 223 224 225 227 230 232 235 236 236 238 239 240 242 243 243 246 254 266
336 333 327 321 322 323 321 320 320 318 315 313 312 310 310 309 307 302 297 294 291 289 287 286 287 288 287 285 285 290 293 290 283 271 259 256 257 252 246 243 242 239 236 239 239 239 241 240 233 229 227 227 227 225 224 223 222 223 224 226 229 231 233 234 233 235 234 235 237 236 238 243 255 266
342 337 329 323 324 325 324 326 326 322 318 317 316 316 316 312 307 303 299 298 296 293 290 289 290 289 288 287 287 291 292 291 293 292 285 267 250 244 246 243 238 234 230 230 233 234 235 232 225 224 226 226 224 222 222 221 221 222 223 225 227 229 231 230 230 231 231 233 233 230 236 244 254 263
345 340 330 323 326 331 332 333 331 323 318 317 319 321 318 313 310 310 307 303 300 297 295 294 292 290 286 286 287 291 293 293 294 295 297 288 259 238 234 240 236 231 224 218 223 230 229 226 221 221 225 225 222 221 219 218 218 218 219 222 225 227 228 227 227 228 229 232 230 227 233 241 247 256
343 338 331 323 331 339 337 333 331 324 318 321 328 327 323 319 318 318 314 311 308 303 299 296 293 289 288 291 291 293 295 296 296 295 295 293 276 234 211 224 226 224 218 209 214 226 224 220 219 220 225 225 222 220 217 215 215 215 217 220 222 225 226 223 223 225 228 231 230 226 229 237 241 247
340 337 332 324 332 341 338 333 332 327 322 333 340 335 330 327 325 325 322 319 315 309 304 300 295 292 292 295 296 298 299 299 299 298 293 285 275 241 200 207 206 211 210 203 205 220 219 216 217 220 225 226 223 221 218 215 214 215 216 218 220 222 223 221 221 223 226 229 229 226 227 232 234 236
341 339 332 327 335 343 342 338 335 328 328 345 348 341 335 331 328 329 330 327 321 314 307 300 297 296 296 296 296 298 299 299 296 293 290 284 278 260 206 203 216 213 202 196 197 211 213 210 212 218 224 226 225 222 219 216 215 214 215 217 220 220 220 220 222 224 225 228 228 224 225 228 228 227
345 343 333 328 335 341 342 339 336 334 341 350 349 342 335 334 331 331 334 334 328 320 310 302 299 299 298 296 297 300 298 292 287 287 285 282 281 278 250 215 220 224 207 196 193 201 207 204 205 216 223 224 224 222 219 216 215 214 215 217 219 220 219 219 222 224 224 226 227 223 222 223 224 224
349 349 339 330 332 338 340 339 340 344 348 349 346 340 338 338 334 334 337 335 329 323 316 311 307 305 306 307 308 313 312 301 294 291 279 268 270 279 273 228 208 215 208 199 195 192 196 194 198 214 221 220 220 219 218 216 214 214 215 216 217 218 219 219 221 225 224 223 226 224 220 218 217 217
353 356 346 333 334 339 341 341 345 349 350 349 345 341 341 340 337 338 342 341 335 330 327 323 317 313 316 321 323 327 326 319 316 311 286 267 281 277 248 206 190 197 199 199 200 194 180 187 192 207 214 212 213 214 214 212 212 213 214 215 217 218 219 219 219 223 224 222 225 225 221 217 215 212
355 0 352 339 339 343 343 344 348 352 354 352 346 344 344 344 341 341 346 351 353 347 342 340 337 335 335 343 353 355 348 343 348 354 358 350 342 298 210 192 176 177 184 195 202 205 180 183 184 186 196 202 207 210 211 210 209 211 213 215 217 219 218 217 217 221 225 224 224 225 222 219 217 213
355 359 358 353 347 345 346 348 350 355 358 355 350 350 347 346 348 346 347 352 357 357 359 1 3 5 5 6 14 17 10 8 14 19 11 351 347 321 208 181 151 152 143 178 200 204 177 176 175 162 165 189 205 209 209 208 206 208 211 213 216 218 218 218 217 218 223 226 226 223 221 219 216 212
356 358 1 5 358 349 350 352 352 357 2 359 355 355 351 350 353 349 345 347 349 353 1 7 8 11 13 14 18 19 17 19 24 25 16 5 360 348 325 44 132 147 91 47 212 200 174 172 172 163 152 169 207 207 205 204 204 205 207 210 214 218 218 219 219 218 221 225 225 220 214 213 211 206
354 356 0 5 0 352 352 354 354 359 4 3 0 360 358 356 352 346 347 350 350 352 359 4 5 9 13 16 18 18 18 21 24 25 22 15 6 355 350 17 81 116 37 5 328 204 179 175 178 179 180 181 181 194 198 197 198 202 204 207 211 215 216 218 218 217 220 223 222 216 207 200 199 198
352 353 357 360 356 352 354 357 357 0 4 6 6 4 2 358 352 349 354 359 1 2 4 4 5 9 13 15 16 16 16 17 19 21 21 19 15 12 11 19 46 61 18 11 3 195 183 179 182 185 190 175 143 159 184 191 195 201 203 206 210 210 210 212 212 212 215 218 217 214 209 200 194 192
350 353 355 353 351 353 358 360 0 3 5 7 7 5 3 1 360 0 2 4 6 7 6 4 6 10 12 11 12 11 10 12 14 15 18 21 25 31 35 39 47 38 17 25 55 161 178 179 183 182 173 159 150 146 155 179 195 200 201 206 211 210 205 203 203 204 207 210 210 212 214 211 206 202
349 355 354 349 350 356 2 4 6 8 9 8 7 6 5 6 10 13 13 12 9 6 5 7 8 10 9 6 5 4 4 7 9 9 12 16 23 37 46 45 46 43 37 44 62 89 110 161 185 187 178 159 154 159 155 158 183 192 196 202 207 208 203 199 196 198 202 205 205 206 210 213 213 213
351 356 352 350 357 3 5 11 18 20 16 10 7 8 11 15 19 19 17 14 11 8 9 10 7 6 5 3 1 0 1 3 5 10 15 17 20 33 43 41 42 44 45 48 55 61 60 63 155 192 187 172 158 165 170 151 164 177 183 190 199 202 200 197 196 196 198 200 201 199 199 203 208 213
357 5 5 9 19 20 18 22 28 29 23 17 14 15 18 23 24 21 17 15 14 12 10 7 1 1 4 4 2 1 4 8 12 18 23 23 26 34 40 40 41 43 43 44 46 50 50 44 41 109 183 184 177 171 160 142 159 174 174 173 182 192 195 195 197 199 196 196 199 198 196 194 196 204
17 33 33 35 36 34 31 29 30 29 26 24 24 23 24 26 25 21 17 15 14 10 5 2 359 359 3 6 7 8 12 16 19 21 20 20 23 29 32 35 36 35 38 41 41 41 41 42 45 51 115 167 163 165 165 151 150 169 173 169 165 177 190 192 195 197 196 197 200 199 198 192 186 189
35 44 44 43 41 39 38 35 33 32 29 27 27 26 25 26 25 22 19 18 16 12 7 2 360 3 7 10 12 14 16 18 21 23 21 19 19 22 26 29 24 21 28 38 42 40 37 39 45 44 45 87 118 141 159 158 154 160 166 167 163 166 183 188 191 195 196 198 201 200 199 197 191 184
42 47 45 44 42 40 38 35 33 33 30 28 26 24 23 24 24 23 21 22 20 17 12 8 7 9 12 12 13 14 17 19 20 22 23 22 22 23 29 31 14 7 16 26 32 36 38 40 44 45 46 55 75 112 131 133 140 151 159 164 164 164 176 181 187 195 197 196 196 197 199 201 201 197
45 48 45 41 38 35 33 30 28 26 24 24 24 23 22 22 22 22 20 19 17 15 15 14 11 11 11 12 11 11 13 18 20 21 23 24 24 24 27 30 15 4 4 8 14 22 29 36 47 59 59 59 65 78 92 94 95 117 142 159 160 159 172 180 183 189 193 190 186 187 195 201 206 207
48 48 44 39 35 31 28 25 21 18 17 17 17 19 20 20 20 20 18 16 14 15 16 15 14 13 12 11 11 9 8 13 18 21 23 26 25 22 20 20 14 8 2 357 3 11 17 24 36 51 56 56 61 63 62 61 61 78 108 135 146 153 170 180 181 182 185 185 181 178 183 193 203 210
51 48 44 38 33 30 28 24 19 16 15 14 13 13 16 18 19 18 16 14 14 14 15 15 16 16 13 11 11 10 6 10 16 19 22 24 23 20 20 20 10 4 4 5 4 4 8 15 21 26 30 37 50 56 52 49 45 43 56 76 89 120 158 175 181 182 182 180 177 174 173 183 195 203
53 49 44 39 33 29 26 22 19 18 16 15 14 13 12 14 16 17 14 13 15 16 15 14 15 16 15 14 14 12 10 12 15 17 18 19 17 13 16 18 12 5 4 6 5 5 8 12 14 16 15 14 28 44 38 37 39 38 30 23 25 44 110 160 172 179 185 184 178 176 175 181 191 197
55 49 45 42 35 30 26 21 20 20 17 16 16 15 11 10 13 16 15 16 18 19 17 15 16 16 16 16 15 14 15 16 16 15 15 15 14 13 13 11 7 4 4 7 9 10 12 15 17 18 10 3 17 11 343 0 20 29 22 7 358 8 41 137 153 156 174 185 184 186 186 182 189 197
54 48 45 43 36 32 29 23 21 20 19 17 17 15 14 13 14 16 18 18 19 19 18 18 17 17 17 17 17 15 15 16 17 17 15 13 12 11 9 6 2 360 2 7 12 13 15 17 18 17 17 19 15 350 340 343 351 8 17 6 343 343 13 90 145 136 146 162 170 182 193 193 194 200
51 46 44 43 37 32 29 26 23 21 19 19 18 16 14 15 16 17 17 18 19 19 19 19 18 17 17 18 18 17 17 18 18 15 13 13 12 8 6 4 0 357 358 4 9 12 13 13 8 360 352 339 310 304 302 291 304 336 6 15 355 340 11 18 147 134 140 151 149 149 165 182 192 195
49 45 44 42 38 34 30 26 24 23 20 20 20 18 16 15 17 17 16 16 18 20 19 19 19 18 18 17 17 18 19 19 19 16 14 14 14 11 8 5 2 360 358 359 3 7 6 2 358 350 338 326 318 309 296 283 293 324 357 15 14 4 2 339 294 162 145 158 154 142 138 149 162 173
49 44 43 41 37 34 30 26 23 23 22 21 20 20 20 19 19 18 17 17 19 20 20 19 19 19 18 18 18 18 17 16 17 17 15 14 14 14 13 12 8 6 5 0 355 356 357 358 2 5 360 353 350 339 315 308 315 330 349 6 16 18 11 354 305 244 196 166 154 141 130 133 141 155
51 43 39 38 35 31 27 24 21 21 21 20 19 19 20 21 21 20 19 21 22 21 20 19 19 18 18 19 20 20 17 15 14 15 15 14 13 13 13 14 10 6 5 1 351 350 357 5 13 21 22 16 13 14 359 347 344 330 336 354 10 20 23 28 32 324 192 166 149 130 120 129 135 150
54 45 39 37 33 28 24 21 18 18 18 17 17 17 17 19 21 21 20 20 20 21 20 18 18 18 18 18 20 21 20 16 14 15 16 16 14 12 10 10 9 7 4 1 358 0 7 13 16 21 24 20 13 12 4 342 338 334 334 346 360 10 17 30 51 82 144 153 142 119 124 160 170 183
61 44 40 37 29 25 23 18 15 16 15 15 15 16 15 17 19 20 21 20 18 19 19 18 17 18 18 17 20 21 20 18 17 17 16 16 16 15 11 8 9 10 8 4 4 7 10 13 16 20 23 16 7 3 353 338 338 339 337 342 352 360 5 12 33 100 128 134 124 92 82 199 235 250
153 52 36 34 25 20 20 16 13 13 13 13 14 14 13 15 16 18 20 20 19 18 19 17 17 17 17 17 19 19 17 17 20 21 20 19 18 17 15 13 10 10 10 8 6 5 6 10 16 18 16 11 10 5 353 342 342 340 339 346 352 353 357 2 10 55 100 99 108 84 54 45 82 167